This is the latest recevied weather packets stored in our database for station/object KJ4AJP. If no packets are shown the sender has not sent any weather packets the latest 10 day(s).
| Time | Temp. | Humidity | Pressure | Rain* | Wind** | Luminosity | Snow |
|---|---|---|---|---|---|---|---|
| 1777932726 | 27.22° C | 35% | 1008.8 hPa | 0 mm | - | 111 W/m² | - |
| 1777932422 | 27.78° C | 35% | 1008.7 hPa | 0 mm | - | 196 W/m² | - |
| 1777932120 | 27.78° C | 36% | 1008.9 hPa | 0 mm | - | 207 W/m² | - |
| 1777931816 | 27.22° C | 35% | 1008.9 hPa | 0 mm | - | 331 W/m² | - |
| 1777931514 | 27.22° C | 34% | 1008.7 hPa | 0 mm | - | 339 W/m² | - |
| 1777931209 | 27.78° C | 34% | 1008.7 hPa | 0 mm | - | 349 W/m² | - |
| 1777930906 | 27.22° C | 34% | 1008.9 hPa | 0 mm | - | 371 W/m² | - |
| 1777930603 | 27.22° C | 34% | 1008.7 hPa | 0 mm | - | 387 W/m² | - |
| 1777930299 | 27.78° C | 33% | 1009 hPa | 0 mm | - | 222 W/m² | - |
| 1777929995 | 27.78° C | 32% | 1009 hPa | 0 mm | - | 415 W/m² | - |
| 1777929693 | 27.22° C | 35% | 1008.7 hPa | 0 mm | - | 432 W/m² | - |
| 1777929390 | 27.22° C | 36% | 1008.7 hPa | 0 mm | - | 440 W/m² | - |
| 1777929086 | 27.22° C | 35% | 1008.6 hPa | 0 mm | - | 461 W/m² | - |
| 1777928784 | 27.78° C | 33% | 1008.7 hPa | 0 mm | - | 483 W/m² | - |
| 1777928480 | 27.22° C | 36% | 1008.8 hPa | 0 mm | - | 491 W/m² | - |
| 1777928178 | 27.22° C | 34% | 1008.9 hPa | 0 mm | - | 506 W/m² | - |
| 1777927876 | 27.78° C | 35% | 1009 hPa | 0 mm | - | 524 W/m² | - |
| 1777927574 | 27.22° C | 35% | 1008.9 hPa | 0 mm | - | 546 W/m² | - |
| 1777927272 | 27.22° C | 35% | 1009 hPa | 0 mm | - | 549 W/m² | - |
| 1777926971 | 27.78° C | 34% | 1009.1 hPa | 0 mm | - | 563 W/m² | - |
| 1777926668 | 27.78° C | 34% | 1009.3 hPa | 0 mm | - | 563 W/m² | - |
| 1777926362 | 27.78° C | 37% | 1009.1 hPa | 0 mm | - | 594 W/m² | - |
| 1777925716 | 27.78° C | 35% | 1009.5 hPa | 0 mm | - | 632 W/m² | - |
| 1777925414 | 27.78° C | 35% | 1009.5 hPa | 0 mm | - | 632 W/m² | - |
| 1777925110 | 27.78° C | 38% | 1009.4 hPa | 0 mm | - | 645 W/m² | - |
* Rain latest hour (hover to see other rain measurements)
** Current wind speed in m/s (hover to see current wind gust speed)